星链-37234(STARLINK-37234)

导读

STARLINK-37234(NORAD编号68535)是美国太空探索技术公司(SpaceX)星链(Starlink)卫星互联网星座的一员,属于第二代星链(GEN2)部署阶段的卫星,星链项目旨在构建全球覆盖的低轨卫星互联网,计划总计部署约4.2万颗卫星。该卫星运行在近地轨道,配备相控阵天线与氪离子推进系统,支持高速卫星通信,具备自主碰撞规避能力,依托星链低轨布局优势,可提供低时延互联网接入服务,为全球偏远地区、海上用户等提供网络连接支持,是星链大规模星座组网中的标准化卫星节点。

基本信息
目录编号:
68535
目录名称:
STARLINK-37234
国际标识:
2026-068AD
轨道中心:
EARTH
卫星名称:
星链-37234
卫星全名:
星链-37234(STARLINK-37234)
卫星状态:
在轨 (已飞行158 天)
发射日期:
2026-03-30 UTC
国别 :
美国 (US)
星等 :
--
轨道信息
数据来源 国际轨道数据
星历时间: 2026-09-04T04:56:15+0800
9小时前
查看轨道信息
半长轴: 6840.826km
偏心率: 0.0001287
轨道倾角: 53.161°
近地点辐角 116.607°
升交点赤经 11.792°
平近点角 243.506°
近地点: 461.808km
远地点: 463.57km
周期: 93.847分钟
每日圈数: 15.34405
详细信息
固有亮度:
5
最大亮度:
2.5
卫星平台:
Starlink V1.0
覆盖范围:
全球
运营商:
太空探索技术公司
运营商所在国:
美国
制造商(研发单位):
太空探索技术公司
制造商所在国:
美国
使用方式:
暂无
卫星简介
Starlink 计划是 SpaceX 推出的全球卫星互联网项目,通过发射低轨道卫星,为全球尤其是偏远地区提供高速、低延迟的互联网服务。自 2019 年起,Starlink 已部署数千颗卫星,旨在缩小全球数字鸿沟,推动互联网普及。该项目还为军事、航空等行业提供通信支持,带来广泛经济效益。
2D轨道图
3D轨道图
轨道高度分析图
轨道倾角分析图
轨道综合分析图
查看轨道综合分析图
交会数据列表
事件ID 空间交会对象 最接近时刻(TCA) 交会距离 交会风险概率(CRP) 交会风险指数(CRI) 操作
CDM_260905-105606-207206-853521
2026-09-05T
10:56:34+0000
0.128 km
中距离
9.187762E-4 高风险 0.94
CDM_260905-015606-853506-936921
2026-09-05T
01:56:59+0000
0.479 km
远距离
1.984062E-4 高风险 0.81
CDM_260904-033306-171106-853521
2026-09-04T
03:33:06+0000
0.858 km
远距离
1.257553E-5 中风险 0.57
CDM_260905-123006-207206-853521
2026-09-05T
12:30:21+0000
1.576 km
极远距离
3.520789E-6 低风险 0.46
CDM_260905-021106-002406-853521
2026-09-05T
02:11:03+0000
1.616 km
极远距离
2.469591E-6 低风险 0.43
CDM_260905-092206-207206-853521
2026-09-05T
09:22:46+0000
1.796 km
极远距离
2.404085E-6 低风险 0.43
CDM_260904-024606-171106-853521
2026-09-04T
02:46:12+0000
1.445 km
极远距离
2.210027E-6 低风险 0.42
CDM_260904-011206-171106-853521
2026-09-04T
01:12:25+0000
1.553 km
极远距离
1.783518E-6 低风险 0.4
CDM_260903-040305-198406-853521
2026-09-03T
04:03:03+0000
2.685 km
极远距离
9.253937E-7 极低风险 0.34
CDM_260905-051805-246306-853521
2026-09-05T
05:18:09+0000
2.696 km
极远距离
8.503137E-7 极低风险 0.34